Location: Terra Rouge Observatory
(46.0000°N, 62.7500°W)
Time: 08:30:33
(UTC-03:00)

Daily predictions for brighter satellites

Satellite Brightness Start Highest point End
(mag) Time Altitude Azimuth Time Altitude Azimuth Time Altitude Azimuth
Cosmos 1603 3.7 21:19:34 10° SSW 21:25:08 70° ESE 21:30:43 10° NNE
SPOT 1/Viking Rocket 4.5 21:23:36 10° SE 21:28:10 33° ENE 21:32:46 10° N
ALOS 3.8 21:26:58 10° SSW 21:31:14 35° W 21:35:32 10° NNW
Aureole 2 Rocket 3.8 21:28:42 10° SW 21:32:20 46° WNW 21:35:39 10° N
GEOS 3 Rocket 4.4 21:27:38 10° SSE 21:32:42 47° WSW 21:37:44 10° NW
ISS -3.0 21:31:02 10° SW 21:34:10 45° SE 21:37:19 10° ENE
MetOp-A 4.4 21:33:06 10° SSE 21:38:20 56° ENE 21:43:34 10° N
USA 234 3.6 21:32:56 10° ESE 21:39:25 66° NNE 21:45:56 10° NW
Cosmos 1943 Rocket 3.4 21:35:55 10° N 21:40:42 28° NE 21:45:28 10° ESE
DEBRIS 4.3 21:38:45 10° WNW 21:43:42 28° SW 21:46:01 10° SSE
Cosmos 1939 Rocket 3.2 21:40:23 10° S 21:44:31 70° WSW 21:48:40 10° NNW
ERS-1 Rocket 3.9 21:40:21 10° S 21:45:12 49° W 21:50:05 10° NNW
PSLV R/B 4.1 21:42:48 10° WSW 21:46:04 35° S 21:49:20 10° ESE
Lacrosse 5 rocket 3.7 21:42:45 10° WNW 21:46:05 25° NNW 21:49:33 10° NE
Cosmos 1943 3.5 21:41:18 10° S 21:46:38 44° ESE 21:52:02 10° NE
SPOT 5 2.6 21:44:33 10° SSE 21:48:56 86° ENE 21:53:17 10° NNW
Terra 3.4 21:52:46 10° ESE 21:56:19 21° ENE 21:59:53 10° NNE
COSMOS 2455 2.8 21:50:25 10° SSW 21:56:25 83° ESE 22:02:28 10° NE
Envisat 3.3 21:52:27 10° S 21:57:30 71° WSW 22:02:36 10° NNW
Lacrosse 5 4.2 21:55:09 10° WNW 21:59:14 24° N 22:03:20 10° NE
CZ-4 SHROUD 3.8 21:56:27 10° S 21:59:33 56° W 22:02:41 10° NNW
Cosmos 407 Rocket 4.0 21:56:02 10° S 22:00:54 39° ESE 22:05:44 10° NE
Cosmos 1346 Rocket 3.3 21:58:54 11° SSE 22:02:28 39° E 22:06:10 10° NNE
Tsikada Rocket 4.4 21:57:59 10° SSW 22:04:21 70° W 22:10:44 10° N
Cosmos 1825 Rocket 3.6 22:02:14 10° S 22:06:38 65° E 22:11:02 10° NNE
PSLV R/B 4.4 22:08:59 10° S 22:11:55 39° W 22:14:54 10° NNW
SL-27 R/B 4.1 22:12:24 15° ESE 22:12:54 15° E 22:14:58 10° ENE
ARGOS 3.2 22:14:07 14° SSE 22:18:47 73° ENE 22:24:13 10° N
H-2A R/B 4.3 22:22:20 10° SW 22:25:34 21° W 22:28:53 10° NW
Cosmos 2369 Rocket 2.6 22:21:53 10° NNW 22:27:29 61° WSW 22:32:08 15° S
UNK 4.5 22:24:37 10° NNE 22:30:03 75° WNW 22:35:45 10° SSW
IGS 5A 4.4 22:29:02 19° ESE 22:31:22 34° ENE 22:35:10 10° N
USA 81 4.4 22:26:37 10° N 22:31:53 65° W 22:37:04 10° S
Cosmos 1766 3.3 22:28:49 10° N 22:32:51 73° E 22:35:21 22° SSE
Cosmos 1758 4.2 22:29:12 10° N 22:33:03 36° ENE 22:35:07 22° SE
Cosmos 1634 Rocket 4.3 22:29:25 10° NNW 22:35:33 67° W 22:41:30 11° S
Cosmos 2084 3.7 22:32:23 10° NW 22:36:27 61° NE 22:39:05 22° ESE
SL-8 R/B 3.8 22:33:08 10° WNW 22:38:00 77° NNE 22:42:20 13° E
Lacrosse 4 Rocket 1.2 22:35:39 10° SSW 22:39:42 88° ESE 22:43:50 10° NNE
SeaSat 1 3.5 22:38:41 13° S 22:42:41 37° WSW 22:47:17 10° NW
NOAA 11 4.2 22:38:38 17° S 22:42:51 79° WSW 22:48:19 10° NNW
Geosat 4.2 22:42:43 10° NE 22:47:36 48° ESE 22:51:04 18° S
SL-08 RB Rocket 3.9 22:47:17 20° S 22:50:24 68° WSW 22:54:56 10° NNW
CZ-4B R/B 4.2 22:48:37 10° N 22:53:34 54° WNW 22:58:37 10° SW
Cosmos 1953 Rocket 4.2 22:49:42 10° SSW 22:54:01 54° WNW 22:58:25 10° N
Cosmos 2279 Rocket 4.1 22:50:19 10° N 22:56:36 78° W 23:01:15 19° S
YAOGAN 6 4.4 22:54:35 12° SSW 22:57:29 28° W 23:00:44 10° NW
H-2A R/B 1.9 22:55:22 25° SSE 22:58:17 80° ENE 23:03:25 10° NNW
Cosmos 1570 Rocket 4.2 22:53:22 10° NNW 22:58:43 66° ENE 23:01:41 27° SE
Cosmos-2242 3.0 22:54:37 10° N 22:59:04 89° ENE 23:01:21 28° S
Cosmos 1340 4.3 22:59:39 19° E 22:59:55 19° E 23:02:37 10° NE
Cosmos 1470 4.1 22:56:40 10° NNE 22:59:58 26° ENE 23:01:08 22° ESE
CZ-4C R/B 3.8 23:00:20 16° ESE 23:00:20 16° ESE 23:03:32 10° ENE
Cosmos 1805 3.3 22:58:40 10° N 23:02:37 66° E 23:04:07 35° SSE
Atlas Centaur 2 4.0 22:58:37 10° SW 23:04:35 24° S 23:06:34 22° SSE
Cosmos 1607 4.4 23:01:42 23° S 23:05:06 41° ESE 23:10:51 10° NE
Cosmos 1932 4.4 22:59:35 10° SSW 23:05:41 67° ESE 23:11:54 10° NE
COSMOS 2406 3.4 23:03:46 23° S 23:07:07 52° ESE 23:12:41 10° NE
CZ-4C R/B 4.1 23:05:22 22° SSW 23:07:45 48° W 23:11:39 10° NNW
BREEZE-M DEB (TANK) 2.1 23:06:51 10° W 23:09:14 56° NNW 23:10:22 22° ENE
ATLAS 3B R/B 3.2 23:02:07 10° SW 23:09:49 74° NW 23:17:19 10° NE
Cosmos 1544 3.8 23:06:51 10° N 23:10:27 42° ENE 23:11:24 34° ESE
ISS -2.0 23:07:32 10° W 23:10:40 41° NNW 23:13:47 10° NE
Cosmos 1140 Rocket 3.5 23:07:58 25° S 23:10:58 61° ESE 23:16:09 10° NNE
Cosmos 676 Rocket 4.3 23:08:35 10° SSW 23:13:54 67° WNW 23:19:13 10° NNE
SAR-Lupe-2 3.9 23:14:42 34° SSW 23:15:59 57° WSW 23:19:32 10° NNW
Landsat 7 4.4 23:15:11 23° SSW 23:17:54 51° W 23:22:34 10° NNW
NOSS 3-2 (A) 4.4 23:18:02 26° SE 23:19:14 27° ESE 23:24:36 10° ENE
Cosmos 1953 2.7 23:18:27 10° NNW 23:22:23 59° W 23:23:57 33° SSW
USA 234 3.8 23:19:11 25° S 23:22:36 45° SW 23:28:52 10° WNW
Cosmos 1943 Rocket 2.6 23:19:19 10° NW 23:24:43 52° WSW 23:27:31 27° S
Lacrosse 5 rocket 4.2 23:23:39 10° NW 23:26:31 18° N 23:29:29 10° NE
Spot 4 3.9 23:24:58 32° S 23:27:07 72° WSW 23:31:56 10° NNW
Okean 3 Rocket 4.2 23:27:01 35° SE 23:27:58 40° E 23:32:08 10° NNE
DMSP B5D2-2 4.1 23:23:14 10° NNE 23:28:34 88° WNW 23:31:43 25° SSW
CARTOSAT-1 4.2 23:28:08 28° SSW 23:30:02 48° W 23:34:16 10° NNW
Terra 2.4 23:31:28 28° SSW 23:33:43 51° W 23:38:22 10° NNW
Cosmos 614 Rocket 4.0 23:33:35 35° S 23:35:40 63° ESE 23:40:51 10° NNE
Cosmos 1656 Rocket 3.6 23:30:06 10° NNW 23:35:50 85° WSW 23:38:19 35° SSE
Cosmos 1707 3.3 23:37:39 39° ESE 23:38:00 40° E 23:41:42 10° NNE
Lacrosse 5 3.6 23:39:02 10° NW 23:43:30 30° NNE 23:47:57 10° E
SL-27 R/B 4.0 23:46:07 19° WSW 23:47:56 32° WNW 23:50:59 10° N
COSMOS 2487 2.4 23:49:12 69° SE 23:49:20 70° ESE 23:52:57 10° NNE
Meteor 1-24 Rocket 4.5 23:47:34 31° SE 23:49:32 41° E 23:55:00 10° NNE
ALOS 2 3.8 23:50:32 26° E 23:51:52 32° ENE 23:55:45 10° N
USA 238 DEB 3.8 23:44:56 10° SW 23:52:04 85° NW 23:59:10 10° NE
USA 238 3.8 23:45:03 10° SW 23:52:10 85° NW 23:59:16 10° NE
Cosmos 1818 4.1 23:48:20 10° NNW 23:53:45 55° NE 23:56:30 28° ESE
